Temperature
17 17 17 17 17 17 17 17 18 18 18 17 17 17 17 17 17 17 17 18 18 18 18 18 17 17 17 17 17 17 17 17 17 17 17 16 16 16 16 16 16 16 16
17 17 17 17 17 17 17 17 17 17 17 18 17 17 17 17 17 17 17 17 17 17 17 17 17 17 17 17 17 17 17 17 17 17 17 17 16 16 16 16 16 16 16
17 17 17 17 17 17 17 17 17 17 17 17 17 17 17 17 17 17 17 17 17 17 17 17 17 17 17 17 17 17 17 17 17 17 17 16 16 16 16 16 16 16 16
17 17 17 17 17 17 17 17 17 17 17 17 17 17 17 17 17 17 17 17 17 17 17 17 17 17 17 17 17 17 17 17 16 17 16 16 16 16 16 16 16 16 16
17 17 17 17 17 17 17 17 17 17 17 17 17 17 17 17 17 17 17 17 17 17 17 17 17 17 17 17 17 17 17 17 16 16 16 16 16 16 16 16 16 16 16
17 17 17 17 17 17 17 17 17 17 17 17 17 17 17 17 17 17 17 17 17 17 17 17 17 17 17 17 17 17 17 16 16 16 16 16 16 16 16 16 16 16 16
17 17 17 16 17 17 17 17 17 17 17 17 17 17 17 17 17 17 17 17 17 17 17 17 17 17 17 17 16 16 16 16 16 16 16 16 16 16 16 16 16 16 15
17 17 17 16 16 17 17 17 17 17 16 16 16 16 16 17 17 17 17 17 17 17 17 17 17 17 17 16 16 16 16 16 16 16 16 16 16 16 15 15 15 15 15
16 16 16 16 16 16 16 16 16 16 16 16 16 16 16 16 16 17 17 17 17 17 17 17 16 16 16 16 16 16 16 16 16 16 15 15 15 15 15 15 15 15 15
16 16 16 16 16 16 16 16 16 16 16 16 16 16 16 16 16 16 16 16 16 16 16 16 16 16 16 16 16 16 16 15 15 15 15 15 15 15 15 15 15 15 15
16 16 16 16 16 16 16 16 16 16 16 16 16 16 16 16 16 15 16 16 16 16 16 16 16 16 16 15 15 15 15 15 15 15 15 15 15 15 15 15 14 14 14
16 16 16 16 16 16 16 16 16 16 16 16 16 16 16 15 15 15 15 15 15 16 15 15 15 15 15 15 15 15 15 15 15 15 15 15 15 15 14 14 14 14 14
16 16 16 16 16 16 16 15 15 15 15 15 15 15 15 15 15 15 15 15 15 15 15 15 15 15 15 15 15 15 15 15 15 15 15 14 14 14 14 14 14 14 14
16 16 16 16 15 15 15 15 15 15 15 15 15 15 15 15 15 15 15 15 14 14 15 15 15 15 15 15 15 15 15 15 15 15 14 14 14 14 14 14 14 14 14
16 16 16 16 15 15 15 15 15 15 15 15 15 15 15 15 15 15 15 15 14 14 14 15 15 15 15 15 14 14 14 14 14 14 14 14 14 14 14 14 14 14 14
16 16 16 16 15 15 15 15 15 15 15 15 15 15 15 15 14 14 14 14 14 14 13 14 14 14 14 14 14 14 14 14 14 14 14 14 14 14 13 13 13 14 14
16 15 15 15 15 15 15 15 15 14 14 14 14 14 14 14 14 14 14 14 14 14 14 14 14 14 14 14 14 14 14 14 14 14 13 13 13 13 13 13 13 13 13
15 15 15 15 15 15 14 14 14 14 14 14 14 14 14 14 14 14 14 14 14 14 13 13 13 13 13 13 13 13 13 13 13 13 13 13 13 13 13 13 13 13 13
15 15 15 15 14 14 14 14 14 14 14 14 14 14 14 14 14 14 14 13 13 13 13 13 13 13 13 13 13 13 13 13 13 13 13 13 13 13 13 13 13 13 13
15 15 15 14 14 14 14 14 14 14 14 13 13 13 13 13 13 13 13 13 13 13 13 12 13 13 13 13 13 13 13 13 13 13 13 13 13 13 12 12 13 13 13
15 15 14 14 14 14 14 13 13 13 13 13 13 13 13 13 13 13 13 13 12 12 12 12 12 12 12 12 12 12 12 12 12 12 12 12 12 12 12 12 12 12 12
14 14 14 14 14 13 13 13 13 13 13 13 13 13 13 13 13 12 12 12 12 12 12 12 12 12 12 11 11 11 11 11 11 12 12 12 12 12 12 12 12 12 12
14 14 14 14 13 13 13 13 13 13 13 13 12 12 12 12 12 12 12 12 12 12 11 11 11 11 11 11 11 11 11 11 11 11 11 11 11 12 12 12 11 12 12
14 14 13 13 13 13 13 12 12 12 12 12 12 12 12 12 12 12 12 12 12 11 11 11 11 11 11 11 11 11 11 11 11 11 11 11 11 11 11 11 11 11 11
14 13 13 13 13 12 12 12 12 12 12 12 12 12 11 11 11 11 11 11 11 11 11 11 11 11 11 11 10 10 10 10 10 10 10 10 10 10 11 11 11 11 11
13 13 13 13 13 12 12 12 12 12 12 11 11 11 11 11 11 11 11 11 11 11 11 10 10 10 10 10 10 10 10 10 10 10 10 10 10 10 10 10 10 10 10
Wind_Speed
1 1 1 2 2 1 1 1 0 0 0 1 1 2 3 4 4 4 5 7 8 8 9 9 9 10 10 11 12 12 11 11 10 10 10 12 12 13 13 14 14 14 14
0 1 1 1 2 2 1 1 0 1 1 1 1 2 2 3 3 4 4 5 7 7 7 8 7 8 8 10 12 12 11 11 11 11 10 11 11 12 13 13 14 14 14
1 1 1 1 2 2 1 0 1 1 0 0 1 1 1 1 2 2 3 3 3 4 5 6 6 7 7 8 10 11 10 10 10 10 10 10 11 11 11 12 13 13 14
1 1 1 1 1 1 1 1 1 1 1 0 0 1 1 1 1 1 1 1 2 3 3 4 5 6 6 6 7 9 10 10 10 10 10 10 10 10 10 11 11 12 13
1 1 0 1 1 1 1 0 1 1 1 1 0 1 1 0 1 1 1 2 2 2 2 3 4 5 5 5 6 7 9 9 10 10 9 9 8 9 9 9 10 11 11
1 1 0 1 0 1 1 1 1 1 1 0 0 1 1 0 0 0 1 1 1 2 2 2 3 3 5 5 5 6 7 8 9 10 10 9 8 8 8 9 9 9 10
1 1 1 1 1 1 0 1 1 1 1 1 1 1 2 1 1 0 0 0 0 1 2 2 2 3 3 5 6 6 7 8 8 9 10 10 9 9 9 9 9 10 10
1 0 1 0 0 1 1 1 2 1 0 1 1 1 2 3 2 1 0 0 1 1 1 2 2 3 3 3 4 5 6 7 7 7 7 7 8 9 10 10 10 10 10
2 1 1 0 0 1 1 1 1 2 1 0 1 2 2 2 2 2 1 1 1 1 1 1 2 3 3 3 4 5 6 7 7 8 8 8 8 8 8 9 9 10 10
2 2 1 1 1 1 0 0 1 1 2 1 0 0 1 2 1 1 2 2 2 2 2 2 1 2 2 3 4 5 6 6 7 7 7 8 8 8 8 9 9 9 9
2 2 1 1 1 0 0 0 1 1 1 2 1 1 1 1 0 1 2 2 2 2 2 2 1 1 2 2 3 5 5 6 7 7 7 7 8 8 8 9 10 10 9
2 3 2 1 1 0 0 1 1 1 1 2 1 1 2 1 1 1 2 2 2 2 2 2 2 1 2 2 4 5 6 7 7 7 7 7 8 8 8 8 9 9 10
2 2 2 1 1 0 0 0 0 1 1 2 2 1 1 1 1 2 1 2 2 2 2 2 2 2 3 3 5 5 5 6 6 7 7 7 7 7 7 8 7 8 9
2 2 1 1 1 1 0 0 0 1 1 1 1 1 1 1 2 2 2 2 1 2 1 2 1 2 3 4 5 5 5 6 6 7 6 6 6 6 7 7 7 7 7
1 1 1 1 1 1 1 0 0 1 0 1 1 1 1 1 1 2 2 3 2 2 3 2 2 2 3 3 4 4 5 5 6 7 7 7 6 6 6 6 6 6 7
1 1 1 1 1 1 1 1 1 1 1 1 0 0 1 1 1 1 2 2 2 3 3 2 2 3 3 3 3 3 4 5 6 7 7 6 6 7 7 8 7 7 7
0 0 0 1 2 2 2 1 1 1 0 1 1 0 1 1 1 1 1 1 2 2 3 3 2 3 3 3 3 2 3 3 4 6 6 7 7 7 7 7 8 7 7
1 1 0 1 2 2 2 2 1 1 1 1 1 1 1 1 1 0 0 1 1 1 2 3 2 2 2 3 3 3 2 2 3 4 5 6 7 7 7 7 7 7 7
1 1 1 1 1 2 2 1 1 1 1 1 1 1 2 1 1 1 1 1 1 1 1 2 2 2 2 2 2 2 2 2 2 2 3 4 5 6 7 7 7 7 7
0 1 1 1 1 1 1 1 1 1 1 2 2 1 2 1 2 1 1 1 1 1 0 1 1 2 2 2 2 2 2 3 3 2 1 2 3 4 5 6 6 6 7
1 1 1 1 1 1 1 1 1 1 2 2 3 2 2 1 2 0 0 1 0 0 0 0 1 1 2 2 2 1 2 3 3 1 2 2 2 2 3 4 5 5 6
1 1 1 1 2 2 3 3 2 2 2 2 3 3 2 2 3 3 2 1 1 1 1 1 1 2 3 2 2 2 2 2 2 1 1 2 1 2 2 2 2 3 4
1 1 1 1 1 2 3 3 2 1 1 1 2 2 2 3 3 3 3 3 2 1 1 2 2 3 3 3 2 2 2 2 3 2 1 2 2 2 2 2 2 2 2
0 0 1 1 1 2 3 3 3 2 1 1 1 1 2 3 3 3 2 3 3 3 2 2 3 4 4 3 3 2 2 2 2 2 1 1 2 2 3 2 2 1 1
0 1 1 1 1 2 3 3 2 1 1 2 2 2 2 2 4 3 1 2 3 4 3 2 2 3 4 4 2 1 0 0 2 2 1 1 1 2 2 2 1 1 1
1 1 1 1 1 2 2 2 1 1 1 2 2 3 3 3 3 2 1 1 2 4 4 4 4 3 3 3 2 2 2 2 1 2 1 1 1 1 1 1 2 2 1
Wind_Direction
12 358 345 340 328 320 324 319 289 258 234 196 198 201 211 216 226 231 244 242 236 232 225 224 223 222 222 220 213 208 206 209 212 214 216 215 209 207 207 205 204 204 203
11 18 2 349 336 325 301 277 254 243 236 216 236 228 222 217 228 230 241 248 240 233 232 229 226 227 226 219 212 209 209 213 213 213 216 213 211 209 210 210 208 205 202
22 51 29 352 331 335 344 63 61 79 121 191 284 277 237 220 214 214 231 242 252 248 246 240 234 232 232 225 216 212 212 214 214 213 212 212 210 208 208 210 209 205 203
39 73 40 334 331 5 49 93 94 92 49 52 309 294 270 223 239 223 213 231 246 251 250 239 236 231 228 230 223 213 210 212 214 215 211 209 208 206 207 206 205 205 205
19 105 55 303 11 47 41 78 86 115 97 43 9 338 338 188 241 216 206 217 228 238 250 254 243 230 229 234 232 218 214 212 212 210 211 208 206 207 208 209 208 208 209
9 104 47 323 58 71 50 49 67 79 98 34 29 28 17 1 47 209 224 214 225 231 239 248 246 229 224 229 227 217 211 209 212 210 207 207 207 206 204 206 208 209 210
11 68 44 17 53 81 89 105 98 83 54 54 75 25 4 340 3 336 293 113 274 250 231 228 225 229 228 233 228 221 217 216 215 211 211 212 213 212 210 207 208 212 214
1 50 82 293 126 132 70 86 108 94 63 71 110 97 6 345 334 324 299 222 271 262 247 232 220 219 222 225 220 226 224 220 215 211 208 210 214 212 215 214 213 214 216
5 19 44 91 100 142 164 181 153 149 165 51 97 132 142 236 304 325 305 302 299 255 265 243 219 219 216 214 222 234 229 220 219 219 215 216 214 208 210 212 212 215 218
9 1 23 73 90 100 135 222 143 158 156 168 153 90 165 157 177 315 329 336 326 297 290 280 246 214 210 216 225 230 230 225 223 221 219 220 219 211 213 214 214 217 222
8 9 14 54 59 61 39 188 121 141 160 167 163 153 134 102 128 206 284 324 336 321 312 293 263 237 222 227 234 231 231 229 224 220 221 223 221 218 218 214 217 222 224
355 3 12 38 48 36 309 261 189 159 166 160 159 148 153 155 188 199 234 280 301 302 303 283 254 249 239 246 250 247 238 232 223 222 222 225 222 221 225 225 224 226 230
334 332 348 354 3 322 293 249 149 196 195 180 184 193 183 186 180 185 195 248 274 295 301 282 265 261 259 255 253 252 246 239 227 222 222 226 227 224 229 229 232 233 235
284 309 329 340 333 334 330 50 308 254 217 199 192 193 198 216 196 194 191 199 262 297 291 277 296 275 276 262 254 251 246 244 228 220 219 222 226 227 228 227 232 234 238
315 348 4 6 1 10 356 55 329 294 221 213 211 215 230 243 222 215 205 187 188 257 279 274 284 298 295 271 263 252 248 249 234 225 222 222 223 223 225 227 233 234 236
348 27 18 359 352 359 5 36 32 355 45 335 246 237 290 290 266 225 206 205 201 207 250 270 272 300 302 292 276 252 248 252 239 230 224 219 218 218 222 226 230 235 238
315 349 318 348 360 5 10 20 353 357 1 334 317 259 286 278 265 252 207 201 209 200 241 279 285 306 299 295 298 276 259 237 235 232 227 222 219 221 227 233 235 242 244
287 284 336 34 19 13 12 24 342 349 345 330 321 335 318 299 283 278 229 241 238 217 225 269 295 315 303 299 296 289 284 259 242 237 233 227 225 229 233 239 240 242 244
316 356 43 38 15 6 13 4 328 336 340 312 314 309 304 307 312 319 296 277 279 275 230 237 286 308 308 325 329 322 317 305 289 268 246 236 236 240 241 243 243 240 241
286 326 352 5 356 19 22 13 9 6 354 329 315 303 298 283 274 272 283 277 288 313 297 257 286 314 314 327 331 331 333 328 307 302 282 262 247 246 246 250 249 249 240
347 353 45 27 10 27 15 22 30 31 14 349 342 333 328 345 0 338 304 255 228 285 315 287 295 319 316 333 323 306 308 318 308 288 307 298 279 265 256 254 255 255 244
345 28 46 38 27 19 22 37 55 34 19 4 349 345 351 10 11 13 14 23 112 183 234 239 270 279 291 297 307 301 299 303 294 303 284 293 294 280 279 261 268 257 247
23 40 22 38 20 359 14 19 36 50 32 11 353 349 5 12 15 9 6 7 354 338 222 216 246 261 269 268 277 299 282 279 276 279 260 278 303 303 301 293 290 256 248
38 7 6 349 347 349 9 25 34 60 48 1 340 337 352 346 354 1 5 3 344 333 308 266 249 260 264 261 241 244 254 284 305 308 295 269 301 312 325 314 308 282 238
251 257 226 250 295 323 2 22 44 76 44 351 348 360 351 332 340 1 33 3 341 330 332 320 283 278 278 267 238 187 197 212 299 304 295 260 291 307 317 323 332 354 358
233 263 285 261 251 291 335 1 47 105 53 350 349 345 342 334 339 360 6 314 310 309 323 336 338 332 311 295 266 214 207 219 267 275 260 225 267 286 300 323 347 353 9
Height
1522 1522 1522 1522 1522 1522 1523 1523 1523 1524 1525 1525 1526 1527 1528 1529 1529 1530 1531 1532 1533 1534 1534 1535 1536 1537 1537 1538 1539 1539 1540 1542 1543 1544 1545 1547 1548 1550 1551 1553 1554 1556 1557
1521 1521 1521 1521 1522 1522 1522 1522 1523 1523 1523 1524 1524 1525 1526 1527 1528 1529 1530 1530 1531 1532 1533 1534 1534 1535 1535 1536 1536 1538 1539 1539 1541 1542 1543 1544 1546 1547 1549 1550 1552 1554 1555
1521 1521 1520 1520 1521 1521 1521 1521 1522 1522 1522 1522 1523 1524 1524 1525 1526 1527 1528 1529 1530 1530 1531 1532 1532 1533 1533 1534 1535 1535 1536 1537 1538 1540 1541 1542 1544 1545 1546 1548 1549 1551 1553
1520 1520 1520 1520 1520 1520 1520 1520 1520 1521 1521 1521 1522 1522 1523 1524 1525 1526 1527 1527 1528 1529 1529 1530 1530 1531 1531 1532 1533 1533 1534 1535 1536 1537 1539 1540 1541 1542 1544 1545 1547 1549 1550
1520 1519 1519 1518 1519 1519 1519 1519 1519 1519 1520 1520 1520 1521 1521 1522 1523 1524 1525 1526 1526 1527 1528 1529 1529 1529 1530 1530 1530 1531 1532 1533 1534 1535 1536 1537 1538 1540 1541 1543 1544 1546 1548
1519 1518 1518 1518 1518 1518 1518 1518 1518 1519 1519 1519 1519 1520 1520 1521 1522 1523 1523 1524 1525 1525 1526 1527 1527 1528 1528 1528 1528 1529 1529 1530 1531 1532 1533 1534 1536 1537 1538 1540 1541 1543 1544
1519 1518 1517 1517 1517 1517 1517 1517 1517 1517 1518 1518 1519 1519 1520 1520 1521 1521 1522 1522 1523 1524 1524 1525 1525 1525 1526 1526 1526 1527 1527 1528 1529 1530 1530 1531 1533 1534 1535 1537 1538 1540 1541
1518 1517 1517 1516 1516 1516 1516 1516 1516 1516 1517 1517 1518 1518 1519 1520 1519 1520 1520 1521 1521 1522 1522 1523 1523 1523 1523 1523 1524 1524 1525 1525 1526 1527 1528 1528 1530 1531 1532 1534 1535 1536 1538
1518 1517 1516 1516 1515 1515 1515 1515 1516 1516 1516 1517 1517 1518 1518 1518 1518 1519 1519 1519 1520 1520 1520 1520 1521 1521 1521 1521 1522 1522 1522 1523 1523 1524 1525 1526 1527 1528 1529 1530 1531 1533 1534
1517 1516 1515 1515 1515 1515 1515 1515 1515 1515 1515 1515 1516 1517 1517 1517 1517 1517 1517 1517 1518 1518 1518 1518 1518 1518 1519 1519 1519 1519 1520 1520 1520 1521 1522 1523 1524 1525 1526 1527 1527 1529 1530
1516 1516 1515 1514 1514 1514 1514 1514 1514 1514 1514 1514 1515 1515 1515 1516 1516 1516 1515 1515 1515 1516 1515 1515 1515 1516 1516 1516 1516 1516 1517 1517 1518 1518 1519 1520 1521 1522 1523 1524 1525 1526 1527
1516 1515 1515 1514 1514 1513 1513 1513 1513 1513 1513 1513 1513 1513 1514 1514 1514 1514 1513 1513 1513 1513 1513 1513 1513 1513 1513 1513 1513 1513 1513 1514 1514 1515 1516 1516 1517 1518 1519 1520 1521 1522 1523
1515 1514 1514 1513 1513 1513 1513 1512 1512 1512 1512 1512 1512 1512 1512 1512 1512 1512 1512 1511 1511 1511 1510 1511 1511 1511 1510 1510 1510 1510 1510 1510 1511 1511 1512 1513 1514 1515 1515 1516 1517 1518 1519
1515 1514 1513 1513 1512 1512 1512 1511 1511 1511 1511 1511 1511 1511 1511 1510 1510 1510 1510 1510 1509 1508 1508 1508 1508 1508 1508 1507 1507 1507 1507 1507 1508 1508 1509 1509 1510 1511 1512 1512 1513 1514 1514
1514 1513 1512 1512 1511 1511 1510 1510 1510 1510 1509 1509 1509 1509 1509 1509 1508 1508 1508 1508 1508 1506 1505 1505 1506 1505 1505 1505 1504 1504 1504 1504 1505 1505 1505 1506 1506 1507 1508 1508 1509 1509 1510
1513 1512 1511 1511 1510 1509 1509 1509 1508 1508 1508 1508 1507 1507 1507 1507 1507 1506 1506 1506 1505 1505 1504 1503 1503 1503 1502 1502 1502 1501 1501 1501 1501 1502 1502 1502 1503 1503 1504 1504 1504 1505 1505
1512 1511 1511 1510 1509 1508 1508 1508 1507 1507 1506 1506 1506 1505 1505 1505 1505 1504 1504 1503 1503 1503 1501 1500 1500 1500 1499 1499 1499 1498 1498 1498 1498 1498 1498 1498 1499 1499 1500 1500 1500 1500 1501
1512 1511 1510 1509 1508 1507 1507 1506 1506 1505 1504 1504 1504 1503 1503 1503 1502 1502 1501 1501 1500 1500 1499 1498 1497 1496 1496 1496 1496 1495 1495 1495 1495 1495 1495 1495 1495 1496 1496 1496 1496 1496 1497
1511 1510 1509 1508 1507 1506 1505 1505 1504 1503 1503 1502 1502 1501 1501 1500 1500 1499 1499 1498 1498 1497 1496 1495 1494 1493 1493 1493 1492 1492 1491 1491 1491 1491 1492 1492 1492 1492 1492 1492 1492 1492 1492
1510 1509 1508 1507 1506 1505 1504 1503 1503 1502 1501 1500 1500 1499 1499 1498 1497 1496 1496 1495 1495 1494 1494 1492 1491 1491 1490 1490 1489 1488 1488 1488 1488 1488 1488 1488 1489 1489 1489 1489 1489 1488 1488
1508 1508 1507 1506 1504 1503 1503 1502 1501 1500 1499 1499 1498 1497 1497 1496 1495 1494 1494 1493 1492 1492 1491 1490 1489 1488 1487 1487 1486 1485 1484 1484 1484 1485 1485 1485 1485 1485 1485 1485 1485 1484 1484
1507 1507 1505 1504 1503 1502 1501 1501 1500 1499 1498 1497 1496 1495 1495 1494 1493 1492 1492 1491 1491 1490 1488 1488 1486 1486 1485 1485 1484 1483 1482 1481 1481 1482 1481 1481 1482 1482 1482 1482 1481 1481 1481
1506 1505 1504 1503 1502 1501 1500 1499 1498 1497 1497 1495 1494 1494 1493 1492 1491 1490 1490 1489 1489 1488 1487 1486 1485 1484 1483 1482 1481 1480 1480 1479 1478 1479 1479 1478 1479 1479 1479 1478 1478 1478 1478
1505 1504 1503 1502 1501 1500 1499 1498 1497 1496 1495 1494 1493 1492 1491 1490 1490 1489 1488 1487 1486 1485 1485 1484 1483 1482 1482 1481 1480 1479 1477 1477 1476 1477 1476 1475 1475 1475 1476 1475 1475 1475 1475
1503 1502 1500 1500 1500 1499 1498 1497 1496 1495 1494 1493 1492 1491 1490 1489 1488 1487 1486 1485 1484 1483 1483 1482 1481 1480 1479 1478 1477 1476 1475 1474 1473 1474 1474 1473 1472 1472 1473 1472 1473 1473 1473
1501 1500 1499 1498 1498 1497 1496 1496 1495 1494 1492 1491 1490 1490 1489 1488 1487 1486 1484 1483 1482 1481 1480 1479 1478 1477 1476 1476 1475 1474 1473 1472 1471 1471 1471 1471 1470 1470 1470 1470 1470 1470 1470